{"data":{"norad_id":62039,"epoch":"2026-05-25T03:05:08.555136Z","epoch_age_seconds":78002,"freshness":"FRESH","line1":"1 62039U 24216H   26145.12857124  .00012313  00000+0  45597-3 0  9995","line2":"2 62039  42.9969 184.8360 0001108 272.8324  87.2400 15.27596985 84403","mean_motion":15.27596985,"eccentricity":0.0001108,"inclination_deg":42.9969,"raan_deg":184.836,"arg_perigee_deg":272.8324,"mean_anomaly_deg":87.24,"bstar":0.00045597,"rev_number":8440,"period_min":94.265700583325,"perigee_km":482.23802352628,"apogee_km":483.75845109487,"semimajor_km":6861.1352373106,"source":"CELESTRAK","updated_at":"2026-05-25T13:38:19.525035Z"}}